Content
SEND FEEDBACK

Daily
Averages
Monthly
Summary
United States of America

HYANNIS, MASSACHUSETTS


Home > North America > United States > Massachusetts
Elevation: 2 feet     Latitude: 41 40N     Longitude: 070 18W

WEATHER
 
SELECT A DAY
Number of Records: 207,117;   Date Range: 1/1/95 - 7/27/14
 
SHARE

PRINT THIS DATA

[ ← Previous Day ]
WEATHER ALMANAC - APRIL 5, 2013
[ Next Day → ]
[ °C ]   °F
Weather ElementAverageHighLow
Temperature45.1 °F51.8 °F (4:15 pm)42.1 °F (1:56 am)
Dewpoint39.2 °F44.6 °F (1:48 pm)32 °F (1:56 am)
Humidity79.9 %93 % (12:56 pm)65 % (10:56 pm)
Barometer29.81 in30.06 in (1:56 am)29.64 in (4:15 pm)
Wind Speed6.3 mph18.4 mph (4:56 am)
Wind Gust26.5 mph (2:56 am)
Weather ElementAverage
Visibility9.6 mi
Wind DirectionSSE (142.1 °)

Weather ElementTotal
Precipitation0.12 in
Heating Degree Days18.1 (Base 65)
Averaged from 33 records on April 5, 2013
WEATHER CONDITIONS BREAKOUT
WIND DIRECTION BREAKOUT
WEATHER BY HOUR - APRIL 5, 2013
[ °C ]   °F
Local TimeTemperatureDewpointHumidityBarometerVisibilityWind DirectionWind SpeedGust SpeedPrecipitationEventsConditions
1:56 AM42.1 °F32.0 °F67 %30.06 in10.0 miSW (220°)17.3 mphClear
2:56 AM43.0 °F35.1 °F74 %30.03 in10.0 miSW (220°)17.3 mph26.5 mphClear
3:56 AM43.0 °F36.0 °F76 %30.00 in10.0 miSSW (210°)16.1 mph21.9 mphClear
4:56 AM43.0 °F36.0 °F76 %29.99 in10.0 miSW (220°)18.4 mph23.0 mphMostly Cloudy
5:56 AM43.0 °F35.1 °F74 %29.96 in10.0 miSW (220°)13.8 mph23.0 mphClear
6:56 AM44.1 °F34.0 °F68 %29.96 in10.0 miSW (220°)12.7 mph21.9 mphOvercast
7:56 AM44.1 °F36.0 °F73 %29.96 in10.0 miSW (220°)12.7 mph0.00 inRainLight Rain
8:56 AM43.0 °F37.0 °F80 %29.92 in10.0 miSouth (190°)8.1 mph0.00 inRainLight Rain
9:56 AM43.0 °F39.0 °F86 %29.91 in5.0 miSouth (190°)8.1 mph0.01 inRainLight Rain
10:56 AM43.0 °F39.0 °F86 %29.88 in9.0 miSSW (200°)3.5 mph0.01 inRainLight Rain
11:11 AM42.8 °F39.2 °F87 %29.86 in9.0 miSW (220°)4.6 mph0.01 inRainLight Rain
11:43 AM42.8 °F39.2 °F87 %29.85 in10.0 miSW (220°)4.6 mph0.02 inRainLight Rain
11:56 AM43.0 °F39.9 °F89 %29.84 in8.0 miCalm0.03 inRainLight Rain
12:26 PM42.8 °F39.2 °F87 %29.81 in9.0 miCalm0.01 inRainLight Rain
12:45 PM42.8 °F39.2 °F87 %29.80 in8.0 miCalm0.01 inRainLight Rain
12:56 PM43.0 °F41.0 °F93 %29.78 in10.0 miCalm0.02 inRainLight Rain
1:21 PM44.6 °F42.8 °F93 %29.75 in10.0 miCalm0.00 inOvercast
1:48 PM46.4 °F44.6 °F93 %29.72 in10.0 miCalm0.00 inScattered Clouds
1:56 PM46.0 °F43.0 °F89 %29.73 in10.0 miCalm0.00 inScattered Clouds
2:10 PM46.4 °F42.8 °F87 %29.72 in10.0 miCalmMostly Cloudy
2:56 PM48.9 °F44.1 °F83 %29.69 in10.0 miNE (40°)3.5 mphMostly Cloudy
3:24 PM50.0 °F44.6 °F82 %29.67 in10.0 miCalmMostly Cloudy
3:44 PM50.0 °F42.8 °F76 %29.65 in10.0 miCalmScattered Clouds
3:56 PM51.1 °F41.0 °F68 %29.65 in10.0 miCalmMostly Cloudy
4:15 PM51.8 °F42.8 °F71 %29.64 in10.0 miVariable3.5 mphScattered Clouds
4:56 PM50.0 °F43.0 °F77 %29.65 in10.0 miSSW (200°)4.6 mphPartly Cloudy
5:56 PM48.9 °F42.1 °F77 %29.66 in10.0 miSouth (190°)6.9 mphClear
6:56 PM45.0 °F42.1 °F90 %29.68 in10.0 miSouth (190°)4.6 mphClear
7:56 PM45.0 °F39.9 °F82 %29.71 in10.0 miSW (230°)11.5 mphClear
8:56 PM45.0 °F37.0 °F74 %29.73 in10.0 miWest (260°)9.2 mphClear
9:56 PM44.1 °F36.0 °F73 %29.75 in10.0 miNW (320°)6.9 mphClear
10:56 PM45.0 °F34.0 °F65 %29.80 in10.0 miNorth (360°)8.1 mphClear
11:56 PM43.0 °F33.1 °F68 %29.83 in10.0 miNorth (350°)12.7 mph20.7 mphClear
Hourly data recorded from KHYA, located miles away from Hyannis, Massachusetts







STORIES FROM OUR PARTNERS